TimeCST,TemperatureF,Dew PointF,Humidity,Sea Level PressureIn,VisibilityMPH,Wind Direction,Wind SpeedMPH,Gust SpeedMPH,PrecipitationIn,Events,Conditions,WindDirDegrees,DateUTC
12:15 AM,33.4,29.8,87,30.26,10.0,East,4.6,-,N/A,,Clear,90,2013-11-20 06:15:00
12:35 AM,33.1,29.5,87,30.25,10.0,East,6.9,-,N/A,,Clear,80,2013-11-20 06:35:00
12:55 AM,33.4,30.2,88,30.25,10.0,East,6.9,-,N/A,,Clear,90,2013-11-20 06:55:00
1:15 AM,34.0,30.2,86,30.26,10.0,East,6.9,-,N/A,,Clear,90,2013-11-20 07:15:00
1:35 AM,33.3,30.2,89,30.26,10.0,East,6.9,-,N/A,,Clear,90,2013-11-20 07:35:00
1:55 AM,32.7,29.7,88,30.26,10.0,East,5.8,-,N/A,,Clear,90,2013-11-20 07:55:00
2:15 AM,32.2,29.5,90,30.26,10.0,East,4.6,-,N/A,,Clear,80,2013-11-20 08:15:00
2:35 AM,31.8,28.9,89,30.25,10.0,East,5.8,-,N/A,,Clear,90,2013-11-20 08:35:00
2:55 AM,32.0,29.1,89,30.25,10.0,East,3.5,-,N/A,,Clear,90,2013-11-20 08:55:00
3:15 AM,32.0,29.3,90,30.25,10.0,East,5.8,-,N/A,,Clear,90,2013-11-20 09:15:00
3:35 AM,32.0,29.3,90,30.24,10.0,East,5.8,-,N/A,,Clear,80,2013-11-20 09:35:00
3:55 AM,32.0,29.3,90,30.24,10.0,East,4.6,-,N/A,,Clear,80,2013-11-20 09:55:00
4:15 AM,31.6,29.1,90,30.24,10.0,East,3.5,-,N/A,,Clear,80,2013-11-20 10:15:00
4:35 AM,31.3,28.9,91,30.24,10.0,East,4.6,-,N/A,,Clear,80,2013-11-20 10:35:00
4:55 AM,30.6,28.6,92,30.24,10.0,Calm,Calm,-,N/A,,Clear,0,2013-11-20 10:55:00
5:15 AM,30.9,28.4,90,30.24,10.0,East,3.5,-,N/A,,Clear,100,2013-11-20 11:15:00
5:35 AM,31.6,29.3,91,30.23,10.0,East,6.9,-,N/A,,Clear,100,2013-11-20 11:35:00
5:55 AM,31.8,29.1,90,30.24,10.0,East,3.5,-,N/A,,Clear,90,2013-11-20 11:55:00
6:15 AM,30.4,28.2,92,30.24,10.0,East,5.8,-,N/A,,Clear,90,2013-11-20 12:15:00
6:35 AM,30.2,28.4,93,30.24,10.0,East,3.5,-,N/A,,Clear,100,2013-11-20 12:35:00
6:55 AM,30.7,28.4,91,30.24,10.0,East,6.9,-,N/A,,Clear,90,2013-11-20 12:55:00
7:15 AM,31.8,29.5,91,30.23,10.0,East,6.9,-,N/A,,Clear,90,2013-11-20 13:15:00
7:35 AM,32.0,29.7,91,30.23,10.0,East,8.1,-,N/A,,Clear,100,2013-11-20 13:35:00
7:55 AM,33.3,30.2,89,30.24,10.0,East,5.8,-,N/A,,Clear,100,2013-11-20 13:55:00
8:15 AM,34.5,30.7,86,30.24,10.0,ESE,8.1,-,N/A,,Clear,110,2013-11-20 14:15:00
8:35 AM,35.2,31.1,85,30.24,10.0,ESE,8.1,-,N/A,,Clear,110,2013-11-20 14:35:00
8:55 AM,36.5,32.0,84,30.24,10.0,ESE,8.1,-,N/A,,Clear,110,2013-11-20 14:55:00
9:15 AM,37.8,32.2,80,30.24,10.0,East,8.1,-,N/A,,Clear,100,2013-11-20 15:15:00
9:35 AM,39.2,32.9,78,30.24,10.0,East,6.9,-,N/A,,Clear,100,2013-11-20 15:35:00
9:55 AM,40.5,33.1,75,30.23,10.0,SE,8.1,-,N/A,,Clear,130,2013-11-20 15:55:00
10:15 AM,41.9,33.1,71,30.23,10.0,SE,4.6,-,N/A,,Clear,130,2013-11-20 16:15:00
10:35 AM,43.3,33.3,68,30.22,10.0,SE,5.8,-,N/A,,Clear,130,2013-11-20 16:35:00
10:55 AM,44.4,33.3,65,30.21,10.0,ESE,5.8,-,N/A,,Clear,120,2013-11-20 16:55:00
11:15 AM,45.1,34.0,65,30.19,10.0,ESE,6.9,-,N/A,,Clear,120,2013-11-20 17:15:00
11:35 AM,47.8,34.5,60,30.18,10.0,ESE,5.8,-,N/A,,Clear,120,2013-11-20 17:35:00
11:55 AM,49.1,34.5,57,30.17,10.0,SE,4.6,-,N/A,,Clear,130,2013-11-20 17:55:00
12:15 PM,49.6,34.3,56,30.16,10.0,SE,5.8,-,N/A,,Clear,130,2013-11-20 18:15:00
12:35 PM,50.9,33.1,51,30.16,10.0,Calm,Calm,-,N/A,,Clear,0,2013-11-20 18:35:00
12:55 PM,51.1,32.9,50,30.16,10.0,Calm,Calm,-,N/A,,Clear,0,2013-11-20 18:55:00
1:15 PM,52.5,32.5,47,30.16,10.0,Calm,Calm,-,N/A,,Clear,0,2013-11-20 19:15:00
1:35 PM,52.7,32.5,46,30.15,10.0,Calm,Calm,-,N/A,,Clear,0,2013-11-20 19:35:00
1:55 PM,52.9,32.9,47,30.14,10.0,SSE,3.5,-,N/A,,Clear,160,2013-11-20 19:55:00
2:15 PM,53.1,33.4,47,30.14,10.0,SSE,3.5,-,N/A,,Clear,160,2013-11-20 20:15:00
2:35 PM,53.6,34.7,49,30.13,5.0,SSE,6.9,-,N/A,,Haze,160,2013-11-20 20:35:00
2:55 PM,54.0,35.6,50,30.13,10.0,SSE,5.8,-,N/A,,Clear,160,2013-11-20 20:55:00
3:15 PM,52.3,34.9,51,30.14,10.0,SSE,3.5,-,N/A,,Clear,150,2013-11-20 21:15:00
3:35 PM,52.3,37.6,57,30.14,10.0,ESE,3.5,-,N/A,,Clear,120,2013-11-20 21:35:00
3:55 PM,52.2,37.9,58,30.14,7.0,Calm,Calm,-,N/A,,Clear,0,2013-11-20 21:55:00
4:15 PM,51.6,38.7,61,30.13,7.0,ESE,4.6,-,N/A,,Clear,110,2013-11-20 22:15:00
4:35 PM,51.1,37.8,60,30.13,10.0,ESE,5.8,-,N/A,,Clear,110,2013-11-20 22:35:00
4:55 PM,49.5,37.4,63,30.13,10.0,East,5.8,-,N/A,,Clear,100,2013-11-20 22:55:00
5:15 PM,48.4,36.7,64,30.13,10.0,ESE,5.8,-,N/A,,Clear,110,2013-11-20 23:15:00
5:35 PM,46.8,36.7,68,30.13,10.0,East,6.9,-,N/A,,Clear,90,2013-11-20 23:35:00
5:55 PM,46.2,36.1,68,30.14,10.0,ESE,4.6,-,N/A,,Clear,110,2013-11-20 23:55:00
6:15 PM,45.9,36.1,69,30.13,10.0,ESE,6.9,-,N/A,,Clear,110,2013-11-21 00:15:00
6:35 PM,46.2,35.8,67,30.13,10.0,East,5.8,-,N/A,,Clear,80,2013-11-21 00:35:00
6:55 PM,46.0,36.5,69,30.14,10.0,East,5.8,-,N/A,,Clear,100,2013-11-21 00:55:00
7:15 PM,45.5,35.6,68,30.14,10.0,ESE,3.5,-,N/A,,Clear,110,2013-11-21 01:15:00
7:35 PM,45.7,35.6,68,30.15,10.0,ESE,4.6,-,N/A,,Clear,120,2013-11-21 01:35:00
7:55 PM,44.2,35.8,72,30.15,10.0,ESE,4.6,-,N/A,,Scattered Clouds,110,2013-11-21 01:55:00
8:15 PM,46.6,35.6,66,30.15,10.0,ENE,4.6,-,N/A,,Overcast,70,2013-11-21 02:15:00
8:35 PM,46.0,35.6,67,30.16,10.0,East,3.5,-,N/A,,Scattered Clouds,90,2013-11-21 02:35:00
8:55 PM,46.6,34.7,63,30.16,10.0,East,3.5,-,N/A,,Clear,90,2013-11-21 02:55:00
9:15 PM,44.8,35.2,69,30.17,10.0,ESE,3.5,-,N/A,,Clear,120,2013-11-21 03:15:00
9:35 PM,44.8,35.6,70,30.16,10.0,SE,6.9,-,N/A,,Clear,130,2013-11-21 03:35:00
9:55 PM,45.5,35.2,67,30.17,10.0,SE,5.8,-,N/A,,Scattered Clouds,130,2013-11-21 03:55:00
10:15 PM,43.3,36.1,76,30.17,10.0,SE,6.9,-,N/A,,Mostly Cloudy,130,2013-11-21 04:15:00
10:35 PM,43.2,36.7,78,30.16,10.0,SE,8.1,-,N/A,,Scattered Clouds,130,2013-11-21 04:35:00
10:55 PM,43.3,36.3,76,30.17,10.0,SE,5.8,-,N/A,,Clear,140,2013-11-21 04:55:00
11:15 PM,43.5,36.9,77,30.16,10.0,SE,5.8,-,N/A,,Clear,140,2013-11-21 05:15:00
11:35 PM,43.2,37.4,80,30.16,10.0,SE,4.6,-,N/A,,Clear,130,2013-11-21 05:35:00
11:55 PM,43.7,37.0,77,30.18,10.0,Calm,Calm,-,N/A,,Clear,0,2013-11-21 05:55:00